User: anonymous
Location: Unspecified
(0.0000°N, 0.0000°E)
Time: 21:36:37
(UTC+02:00)
Language:

PSLV R/B - Orbit

View from above orbital plane
View from above orbital plane
View from above satellite
View from above satellite

Ground track
Ground track

The orbit data is extracted from the following two-line orbital elements,

1 29713U 07001E   14259.83573185  .00001337  00000-0  17055-3 0  4182
2 29713 097.6534 250.3195 0027457 151.1765 209.0973 14.82791356415077
Epoch (UTC): 16 September 2014 20:03:27
Eccentricity: 0.0027457
inclination: 97.6534°
perigee height: 601 km
apogee height: 640 km
right ascension of ascending node: 250.3195°
argument of perigee: 151.1765°
revolutions per day: 14.82791356
mean anomaly at epoch: 209.0973°
orbit number at epoch: 41507

The dashed part of the orbit path shows where the satellite is in the earth's shadow,  

DLR